Flag for Malaysia Weather past 2 weeks in Kuala Lumpur, Malaysia

Now
77 °F

Partly cloudy.


Feels Like: 78 °F
Forecast: 74 / 91 °F
Wind: No wind

Location: Sultan Abdul Aziz Shah-Subang

Current Time: Jul 5, 2015 at 7:27:19 AM

Latest Report: Jul 5, 2015 at 7:00 AM


Visibility: 5 mi

Pressure: 29.83 "Hg

Humidity: 89%

Dew point: 73 °F

Location of Kuala LumpurLocation

Historic Weather in Kuala Lumpur — Graph

°F

Kuala Lumpur temperature yesterday

Maximum temperature yesterday: 90 °F (at 2:00 PM)
Minimum temperature yesterday: 75 °F (at 3:00 AM)
Average temperature yesterday: 82 °F

Past Weeks' High & Low Weather Summary

 TemperatureHumidityPressure
High95 °F (Jun 21, 3:00 PM)94% (Jun 20, 7:00 AM)29.98 "Hg (Jun 20, 7:00 AM)
Low75 °F (Jul 4, 3:00 AM)53% (Jun 21, 3:00 PM)29.74 "Hg (Jun 20, 4:00 PM)
Average85 °F76%29.85 "Hg
* Reported Jun 20 6:00 AM — Jul 5 6:00 AM, Kuala Lumpur, Weather by CustomWeather, © 2015

Note: Actual official high and low records may vary slightly from our data, if they occured in-between our weather recording intervals... More about our weather records

Advertising

Kuala Lumpur weather history for previous 24 hours

 ConditionsComfort  
Time TempWeatherWind HumidityBarometerVisibility
6:00 AM
Sun, Jul 5
77 °FPartly cloudy.No wind89%29.83 "Hg6 mi
5:00 AM77 °FPassing clouds.2 mph89%29.83 "HgN/A
4:00 AM79 °FPassing clouds.1 mph89%29.83 "HgN/A
3:00 AM79 °FPassing clouds.1 mph84%29.83 "HgN/A
2:00 AM79 °FPartly cloudy.No wind89%29.86 "HgN/A
1:00 AM79 °FPartly cloudy.No wind89%29.86 "HgN/A
12:00 AM79 °FPartly cloudy.No wind89%29.89 "HgN/A
11:00 PM
Sat, Jul 4
81 °FPartly cloudy.No wind84%29.86 "HgN/A
10:00 PM81 °FPartly cloudy.No wind84%29.86 "HgN/A
9:00 PM82 °FPartly cloudy.2 mph74%29.83 "HgN/A
8:00 PM84 °FBroken clouds.3 mph70%29.80 "HgN/A
7:00 PM88 °FPartly sunny.5 mph62%29.80 "HgN/A
6:00 PM88 °FBroken clouds.9 mph62%29.80 "HgN/A
5:00 PM90 °FBroken clouds.6 mph63%29.80 "HgN/A
4:00 PM90 °FBroken clouds.9 mph63%29.80 "HgN/A
3:00 PM90 °FBroken clouds.7 mph63%29.80 "HgN/A
2:00 PM90 °FBroken clouds.6 mph63%29.83 "HgN/A
1:00 PM84 °FBroken clouds.2 mph74%29.86 "HgN/A
12:00 PM82 °FPartly sunny.2 mph79%29.86 "HgN/A
11:00 AM81 °FBroken clouds.5 mph79%29.89 "HgN/A
10:00 AM77 °FMore clouds than sun.3 mph89%29.89 "HgN/A
9:00 AM75 °FLight rain. More clouds than sun.1 mph94%29.89 "HgN/A
8:00 AM75 °FLight rain. Mostly cloudy.5 mph94%29.86 "Hg5 mi
7:00 AM75 °FLight rain. Mostly cloudy.7 mph89%29.89 "Hg5 mi
Weather by CustomWeather, © 2015

See weather overviewHow to use our weather pages